This is the latest recevied weather packets stored in our database for station/object SP8IZA-1. If no packets are shown the sender has not sent any weather packets the latest 10 day(s).
| Time | Temp. | Humidity | Pressure | Rain* | Wind** | Luminosity | Snow |
|---|---|---|---|---|---|---|---|
| 1777456600 | 10° C | 45% | 1024.5 hPa | - | - | - | - |
| 1777456299 | 10.56° C | 45% | 1024.5 hPa | - | - | - | - |
| 1777455999 | 10° C | 45% | 1024.5 hPa | - | - | - | - |
| 1777455698 | 10.56° C | 45% | 1024.5 hPa | - | - | - | - |
| 1777455398 | 10.56° C | 45% | 1024.3 hPa | - | - | - | - |
| 1777455097 | 10° C | 45% | 1024.4 hPa | - | - | - | - |
| 1777454797 | 10° C | 45% | 1024.3 hPa | - | - | - | - |
| 1777454496 | 10° C | 45% | 1024.3 hPa | - | - | - | - |
| 1777454196 | 11.11° C | 44% | 1024.2 hPa | - | - | - | - |
| 1777453895 | 10.56° C | 45% | 1024.2 hPa | - | - | - | - |
| 1777453595 | 10° C | 45% | 1024.2 hPa | - | - | - | - |
| 1777453294 | 10.56° C | 45% | 1024.2 hPa | - | - | - | - |
| 1777452994 | 10.56° C | 45% | 1024.2 hPa | - | - | - | - |
| 1777452693 | 10.56° C | 44% | 1024.1 hPa | - | - | - | - |
| 1777452393 | 10° C | 45% | 1024.1 hPa | - | - | - | - |
| 1777452092 | 10.56° C | 45% | 1024.1 hPa | - | - | - | - |
| 1777451792 | 11.11° C | 44% | 1024.1 hPa | - | - | - | - |
| 1777451491 | 10° C | 45% | 1024 hPa | - | - | - | - |
| 1777451191 | 9.44° C | 45% | 1024.1 hPa | - | - | - | - |
| 1777450890 | 8.89° C | 45% | 1024 hPa | - | - | - | - |
| 1777450590 | 8.89° C | 45% | 1024.1 hPa | - | - | - | - |
| 1777450289 | 8.89° C | 45% | 1024 hPa | - | - | - | - |
| 1777449989 | 8.89° C | 45% | 1024 hPa | - | - | - | - |
| 1777449688 | 8.89° C | 45% | 1023.9 hPa | - | - | - | - |
| 1777449388 | 8.89° C | 45% | 1023.9 hPa | - | - | - | - |
* Rain since midnight (hover to see other rain measurements)
** Current wind speed in m/s (hover to see current wind gust speed)